TimeEST,TemperatureF,Dew PointF,Humidity,Sea Level PressureIn,VisibilityMPH,Wind Direction,Wind SpeedMPH,Gust SpeedMPH,PrecipitationIn,Events,Conditions,WindDirDegrees,DateUTC
12:14 AM,26.6,21.2,80,30.40,0.8,West,3.5,-,0.00,Snow,Light Snow,280,2013-11-29 05:14:00
12:23 AM,26.6,23.0,86,30.40,0.5,SW,3.5,-,0.01,Fog-Snow,Snow,220,2013-11-29 05:23:00
12:30 AM,26.6,23.0,86,30.40,0.5,WSW,4.6,-,0.02,Fog-Snow,Snow,250,2013-11-29 05:30:00
12:51 AM,25.0,23.0,92,30.43,0.5,South,4.6,-,0.05,Fog-Snow,Snow,190,2013-11-29 05:51:00
1:13 AM,26.6,23.0,86,30.40,0.8,East,3.5,-,0.02,Snow,Light Snow,100,2013-11-29 06:13:00
1:21 AM,24.8,23.0,93,30.40,1.0,East,3.5,-,0.02,Snow,Light Snow,100,2013-11-29 06:21:00
1:43 AM,26.6,23.0,86,30.41,2.5,SSE,3.5,-,0.03,Snow,Light Snow,160,2013-11-29 06:43:00
1:47 AM,26.6,23.0,86,30.41,3.0,Calm,Calm,-,0.03,Snow,Light Snow,0,2013-11-29 06:47:00
1:51 AM,26.1,23.0,88,30.44,2.5,Calm,Calm,-,0.03,Snow,Light Snow,0,2013-11-29 06:51:00
2:01 AM,26.6,21.2,80,30.42,1.5,Calm,Calm,-,0.00,Snow,Light Snow,0,2013-11-29 07:01:00
2:14 AM,26.6,23.0,86,30.42,2.5,South,3.5,-,0.00,Snow,Light Snow,180,2013-11-29 07:14:00
2:29 AM,26.6,23.0,86,30.43,1.8,South,4.6,-,0.00,Snow,Light Snow,190,2013-11-29 07:29:00
2:51 AM,26.1,23.0,88,30.47,2.5,South,3.5,-,0.00,Snow,Light Snow,170,2013-11-29 07:51:00
2:58 AM,26.6,23.0,86,30.44,3.0,South,4.6,-,0.01,Snow,Light Snow,170,2013-11-29 07:58:00
3:51 AM,26.1,23.0,88,30.48,8.0,Calm,Calm,-,0.01,,Overcast,0,2013-11-29 08:51:00
4:51 AM,26.1,23.0,88,30.51,9.0,SSW,3.5,-,N/A,,Overcast,200,2013-11-29 09:51:00
5:51 AM,27.0,21.9,81,-9999,10.0,Calm,Calm,-,N/A,,Overcast,0,2013-11-29 10:51:00
6:20 AM,28.4,19.4,69,-9999,1.8,Calm,Calm,-,0.00,,Overcast,0,2013-11-29 11:20:00
6:38 AM,26.6,21.2,80,-9999,4.0,SSE,3.5,-,0.08,,Overcast,150,2013-11-29 11:38:00
6:51 AM,26.1,21.9,84,-9999,9.0,Calm,Calm,-,0.08,,Overcast,0,2013-11-29 11:51:00
7:51 AM,28.9,19.9,69,-9999,10.0,Calm,Calm,-,N/A,,Overcast,0,2013-11-29 12:51:00
8:08 AM,28.4,19.4,69,-9999,10.0,North,3.5,-,N/A,,Overcast,350,2013-11-29 13:08:00
8:26 AM,28.4,19.4,69,30.57,10.0,North,3.5,-,N/A,,Overcast,350,2013-11-29 13:26:00
8:51 AM,26.1,21.0,81,30.62,9.0,Calm,Calm,-,N/A,,Overcast,0,2013-11-29 13:51:00
9:21 AM,28.4,21.2,74,30.60,10.0,Calm,Calm,-,N/A,,Overcast,0,2013-11-29 14:21:00
9:51 AM,30.9,21.0,67,30.64,10.0,Calm,Calm,-,N/A,,Overcast,0,2013-11-29 14:51:00
10:51 AM,30.9,21.0,67,30.65,10.0,NNE,5.8,-,N/A,,Overcast,30,2013-11-29 15:51:00
11:51 AM,32.0,21.0,64,30.65,10.0,NE,4.6,-,N/A,,Clear,40,2013-11-29 16:51:00
12:51 PM,30.9,19.9,64,30.65,10.0,NNE,3.5,-,N/A,,Overcast,20,2013-11-29 17:51:00
1:51 PM,30.9,18.0,59,30.64,10.0,Calm,Calm,-,N/A,,Scattered Clouds,0,2013-11-29 18:51:00
2:51 PM,33.1,16.0,50,30.65,10.0,WNW,3.5,-,N/A,,Clear,290,2013-11-29 19:51:00
3:51 PM,30.0,24.1,79,30.67,10.0,NE,8.1,-,N/A,,Overcast,50,2013-11-29 20:51:00
4:51 PM,28.9,21.9,75,30.68,10.0,East,3.5,-,N/A,,Overcast,80,2013-11-29 21:51:00
5:51 PM,28.9,21.0,72,30.70,10.0,East,3.5,-,N/A,,Overcast,100,2013-11-29 22:51:00
6:51 PM,25.0,18.0,75,30.69,10.0,East,4.6,-,N/A,,Mostly Cloudy,80,2013-11-29 23:51:00
7:51 PM,24.1,18.0,77,30.69,10.0,Calm,Calm,-,N/A,,Clear,0,2013-11-30 00:51:00
8:51 PM,24.1,18.0,77,30.69,10.0,SSE,3.5,-,N/A,,Clear,150,2013-11-30 01:51:00
9:51 PM,26.1,17.1,69,30.69,10.0,SE,8.1,-,N/A,,Clear,140,2013-11-30 02:51:00
10:51 PM,26.1,17.1,69,30.68,10.0,SE,6.9,-,N/A,,Clear,140,2013-11-30 03:51:00
11:51 PM,25.0,16.0,69,30.67,10.0,SE,6.9,-,N/A,,Clear,140,2013-11-30 04:51:00